Keene, NH

10:00 AM EST on November 18, 2019 (GMT -0500)
Dillant-Hopkins

Weather History for KEEN - October, 2019

Change the Weather History Date:

Monday, October 14, 2019

  Actual Average Record
Temperature  
Mean Temperature 50 °F -  
Max Temperature 69 °F 63 °F 84 °F (1995)
Min Temperature 33 °F 38 °F 11 °F (1987)
Degree Days  
Heating Degree Days 14    
Moisture  
Dew Point 39 °F    
Average Humidity 91    
Maximum Humidity 100    
Minimum Humidity 49    
Precipitation  
Precipitation 0.00 in - - ()
Sea Level Pressure  
Sea Level Pressure 30.00 in    
Wind  
Wind Speed 1 mph (SSW)    
Max Wind Speed 10 mph    
Max Gust Speed 17 mph    
Visibility 4 miles    
Events Fog    
Averages and records for this station are not official NWS values.
T = Trace of Precipitation, MM = Missing Value Source: NWS Daily Summary

Daily Weather History Graph

Daily Weather History Graph

Search for Another Location

Airport or City:

Astronomy

Oct. 14, 2019 Rise Set
Actual Time 7:01 AM EDT 6:08 PM EDT
Civil Twilight 6:32 AM EDT 6:37 PM EDT
Nautical Twilight 5:59 AM EDT 7:09 PM EDT
Astronomical Twilight 5:26 AM EDT 7:42 PM EDT
Moon 6:57 PM EDT (10/14) 7:29 AM EDT (10/14)
Length of Visible Light 12h 04m
Length of Day
11h 07m
Waxing Gibbous, 99% of the Moon is Illuminated
Oct 14
Waxing Gibbous
Oct 21
Last Quarter
Oct 27
New
Nov 4
First Quarter
Nov 12
Full

Hourly Weather History & Observations

Time (EDT) Temp. Windchill Dew Point Humidity Pressure Visibility Wind Dir Wind Speed Gust Speed Precip Events Conditions
12:06 AM 39.2 °F - 39.2 °F 100% 30.03 in 0.5 mi Calm Calm - N/A Fog Fog
12:12 AM 39.2 °F - 39.2 °F 100% 30.02 in 1.0 mi Calm Calm - N/A   Mist
12:18 AM 39.2 °F - 39.2 °F 100% 30.02 in 2.0 mi Calm Calm - N/A   Partly Cloudy
12:26 AM 37.4 °F - 37.4 °F 100% 30.02 in 3.0 mi Calm Calm - N/A   Mostly Cloudy
12:29 AM 37.4 °F - 37.4 °F 100% 30.03 in 1.8 mi Calm Calm - N/A   Mostly Cloudy
12:32 AM 37.4 °F 34.9 °F 37.4 °F 100% 30.03 in 0.8 mi SSE 3.5 mph - N/A   Mostly Cloudy
12:47 AM 37.4 °F 33.8 °F 37.4 °F 100% 30.03 in 0.8 mi SSW 4.6 mph - N/A   Mostly Cloudy
12:51 AM 37.4 °F 32.8 °F 37.4 °F 100% 30.03 in 1.2 mi SSW 5.8 mph - N/A   Mostly Cloudy
12:56 AM 37.0 °F 34.5 °F 36.0 °F 96% 30.05 in 2.0 mi South 3.5 mph - N/A   Scattered Clouds
1:03 AM 35.6 °F - 35.6 °F 100% 30.03 in 1.8 mi Calm Calm - N/A   Partly Cloudy
1:05 AM 37.4 °F - 37.4 °F 100% 30.04 in 3.0 mi Calm Calm - N/A   Partly Cloudy
1:56 AM 37.0 °F - 37.0 °F 100% 30.05 in 2.5 mi Calm Calm - N/A   Scattered Clouds
2:02 AM 37.4 °F - 37.4 °F 100% 30.03 in 4.0 mi Calm Calm - N/A   Mostly Cloudy
2:14 AM 35.6 °F - 35.6 °F 100% 30.03 in 1.2 mi Calm Calm - N/A   Mostly Cloudy
2:17 AM 35.6 °F - 35.6 °F 100% 30.03 in 0.5 mi Calm Calm - N/A Fog Fog
2:26 AM 35.6 °F - 35.6 °F 100% 30.02 in 0.2 mi Calm Calm - N/A Fog Fog
2:37 AM 35.6 °F - 35.6 °F 100% 30.02 in 0.5 mi Calm Calm - N/A Fog Fog
2:44 AM 35.6 °F - 35.6 °F 100% 30.01 in 0.8 mi Calm Calm - N/A   Mostly Cloudy
2:56 AM 35.1 °F - 35.1 °F 100% 30.02 in 0.8 mi Calm Calm - N/A   Mostly Cloudy
3:04 AM 35.6 °F 32.8 °F 35.6 °F 100% 30.00 in 0.5 mi SSE 3.5 mph - N/A Fog Fog
3:12 AM 35.6 °F - 35.6 °F 100% 30.00 in 1.0 mi Calm Calm - N/A   Mostly Cloudy
3:28 AM 35.6 °F - 35.6 °F 100% 30.00 in 1.0 mi Calm Calm - N/A   Mostly Cloudy
3:31 AM 35.6 °F - 35.6 °F 100% 30.00 in 2.0 mi Calm Calm - N/A   Scattered Clouds
3:44 AM 33.8 °F - 33.8 °F 100% 30.00 in 1.0 mi Calm Calm - N/A   Mist
3:56 AM 35.1 °F - 35.1 °F 100% 30.01 in 1.5 mi Calm Calm - N/A   Partly Cloudy
4:06 AM 33.8 °F 30.8 °F 33.8 °F 100% 29.99 in 0.8 mi South 3.5 mph - N/A   Mist
4:12 AM 33.8 °F 29.6 °F 33.8 °F 100% 29.99 in 1.5 mi SSW 4.6 mph - N/A   Partly Cloudy
4:15 AM 33.8 °F - 33.8 °F 100% 29.99 in 4.0 mi Calm Calm - N/A   Partly Cloudy
4:47 AM 35.6 °F - 35.6 °F 100% 29.99 in 10.0 mi Calm Calm - N/A   Mostly Cloudy
4:56 AM 34.0 °F - 34.0 °F 100% 30.01 in 10.0 mi Calm Calm - N/A   Mostly Cloudy
5:33 AM 33.8 °F 30.8 °F 33.8 °F 100% 29.99 in 1.0 mi South 3.5 mph - N/A   Overcast
5:36 AM 33.8 °F - 33.8 °F 100% 30.00 in 0.5 mi Calm Calm - N/A Fog Fog
5:44 AM 35.6 °F - 35.6 °F 100% 30.00 in 0.2 mi Calm Calm - N/A Fog Fog
5:56 AM 35.1 °F - 35.1 °F 100% 30.02 in 0.2 mi Calm Calm - N/A Fog Fog
6:34 AM 33.8 °F 30.8 °F 33.8 °F 100% 30.01 in 0.8 mi North 3.5 mph - N/A   Overcast
6:39 AM 33.8 °F - 33.8 °F 100% 30.01 in 1.2 mi Calm Calm - N/A   Overcast
6:54 AM 33.8 °F 30.8 °F 33.8 °F 100% 30.01 in 0.8 mi South 3.5 mph - N/A   Overcast
6:56 AM 34.0 °F - 34.0 °F 100% 30.04 in 0.5 mi Calm Calm - N/A Fog Fog
7:14 AM 33.8 °F - 33.8 °F 100% 30.01 in 0.2 mi Calm Calm - N/A Fog Fog
7:38 AM 33.8 °F - 33.8 °F 100% 30.01 in 0.5 mi Calm Calm - N/A Fog Fog
7:43 AM 33.8 °F - 33.8 °F 100% 30.01 in 1.0 mi Calm Calm - N/A   Mostly Cloudy
7:50 AM 33.8 °F - 33.8 °F 100% 30.01 in 2.0 mi Calm Calm - N/A   Mostly Cloudy
7:56 AM 34.0 °F - 34.0 °F 100% 30.04 in 1.2 mi Calm Calm - N/A   Scattered Clouds
8:14 AM 35.6 °F 32.8 °F 35.6 °F 100% 30.01 in 3.0 mi SSW 3.5 mph - N/A   Partly Cloudy
8:56 AM 39.0 °F - 39.0 °F 100% 30.04 in 10.0 mi Calm Calm - N/A   Partly Cloudy
9:56 AM 45.0 °F 43.5 °F 42.1 °F 90% 30.03 in 10.0 mi West 3.5 mph - N/A   Overcast
10:56 AM 48.0 °F - 43.0 °F 83% 30.02 in 10.0 mi Calm Calm - N/A   Overcast
11:56 AM 57.0 °F - 48.0 °F 72% 29.97 in 10.0 mi Variable 3.5 mph - N/A   Mostly Cloudy
12:06 PM 59.0 °F - 48.2 °F 67% 29.95 in 8.0 mi Calm Calm - N/A   Scattered Clouds
12:56 PM 64.9 °F - 52.0 °F 63% 29.94 in 8.0 mi SW 9.2 mph - N/A   Mostly Cloudy
1:33 PM 64.4 °F - 51.8 °F 64% 29.90 in 10.0 mi South 10.4 mph 17.3 mph N/A   Scattered Clouds
1:56 PM 66.0 °F - 52.0 °F 60% 29.91 in 10.0 mi SSE 8.1 mph - N/A   Partly Cloudy
2:56 PM 66.9 °F - 51.1 °F 57% 29.89 in 10.0 mi South 9.2 mph - N/A   Partly Cloudy
3:56 PM 68.0 °F - 48.0 °F 49% 29.88 in 10.0 mi SW 6.9 mph - N/A   Clear
4:56 PM 66.9 °F - 48.9 °F 52% 29.89 in 10.0 mi SSW 6.9 mph - N/A   Clear
5:56 PM 62.1 °F - 50.0 °F 65% 29.90 in 9.0 mi Calm Calm - N/A   Clear
6:56 PM 55.9 °F - 51.1 °F 84% 29.93 in 10.0 mi Calm Calm - N/A   Partly Cloudy
7:56 PM 52.0 °F - 48.9 °F 89% 29.96 in 10.0 mi Calm Calm - N/A   Clear
8:56 PM 51.1 °F - 48.9 °F 92% 29.99 in 10.0 mi Calm Calm - N/A   Overcast
9:56 PM 57.9 °F - 43.0 °F 58% 30.02 in 10.0 mi NNE 5.8 mph - N/A   Overcast
10:56 PM 57.9 °F - 39.9 °F 51% 30.03 in 10.0 mi NW 6.9 mph - N/A   Overcast
11:56 PM 55.0 °F - 37.9 °F 53% 30.04 in 10.0 mi Variable 4.6 mph - N/A   Overcast